CW5920 Weather Reports


time (UTC)temp
C
wind
direction
speed
KPH
gust
KPH
rain 1hr
cm
rain 24hr
cm
rain mn
cm
humidity
%
barometer
mb
20260509024016 22 113 6.4 11.3 0.00 0.13 0.13 89 1009.1
20260509023016 22 113 6.4 11.3 0.00 0.13 0.13 89 1009.1
20260509022016 22 0.0 0.0 0.00 0.13 0.13 89 1009.1
20260509021016 22 0.0 0.0 0.00 0.13 0.13 89 1009.1
20260509020016 22 0.0 0.0 0.00 0.13 0.13 89 1009.2
20260509015016 22 0.0 0.0 0.00 0.13 0.13 88 1009.0
20260509014016 22 0.0 0.0 0.00 0.13 0.13 88 1008.9
20260509013016 22 0.0 0.0 0.00 0.13 0.13 88 1008.9
20260509012016 22 0.0 0.0 0.00 0.13 0.13 87 1008.8
20260509011016 22 0.0 0.0 0.00 0.13 0.13 87 1008.5
20260509010016 22 0.0 0.0 0.00 0.13 0.13 87 1008.2
20260509005016 22 0.0 0.0 0.00 0.13 0.13 87 1008.1
20260509004016 22 0.0 0.0 0.00 0.13 0.13 86 1008.1
20260509003016 23 135 1.6 4.8 0.00 0.13 0.13 85 1008.3
20260509002016 23 0.0 0.0 0.00 0.13 0.13 85 1008.4
20260509001016 23 135 1.6 6.4 0.00 0.13 0.13 84 1008.4
20260509000016 23 135 1.6 4.8 0.00 0.13 0.13 84 1008.5
20260508235016 23 135 4.8 8.0 0.00 0.13 0.13 84 1008.4
20260508234016 23 113 4.8 11.3 0.00 0.13 0.13 84 1008.5
20260508233016 23 135 1.6 6.4 0.00 0.13 0.13 84 1008.5
20260508232016 23 135 4.8 11.3 0.00 0.13 0.13 84 1008.4
20260508231016 22 135 4.8 12.9 0.00 0.13 0.13 84 1008.3
20260508230016 23 135 8.0 12.9 0.00 0.13 0.13 84 1008.4
20260508225016 22 135 4.8 9.7 0.00 0.13 0.13 84 1008.4
20260508224016 22 113 9.7 14.5 0.00 0.13 0.13 85 1008.4
20260508223036 22 113 9.7 14.5 0.00 0.13 0.13 84 1008.5
20260508222016 22 113 9.7 16.1 0.00 0.13 0.13 85 1008.7
20260508221016 22 90 9.7 16.1 0.00 0.13 0.13 85 1008.7
20260508220016 22 113 11.3 17.7 0.00 0.13 0.13 86 1008.8
20260508215016 21 90 12.9 19.3 0.00 0.13 0.13 87 1008.9
20260508214016 21 113 8.0 14.5 0.00 0.13 0.13 89 1009.1
20260508213016 21 113 6.4 11.3 0.00 0.13 0.13 90 1009.3
20260508212016 20 135 1.6 4.8 0.00 0.13 0.13 90 1009.6
20260508211016 20 0.0 0.0 0.00 0.13 0.13 90 1009.7
20260508210036 20 0.0 0.0 0.03 0.13 0.13 90 1009.9
20260508205016 19 0.0 0.0 0.10 0.13 0.13 90 1010.1
20260508204016 19 0.0 1.6 0.13 0.13 0.13 90 1010.1
20260508203016 18 0.0 6.4 0.13 0.13 0.13 90 1010.1
20260508202036 18 113 3.2 16.1 0.13 0.13 0.13 88 1009.5
20260508201016 19 113 14.5 20.9 0.13 0.13 0.13 87 1009.6
20260508200056 20 90 12.9 20.9 0.10 0.10 0.10 82 1009.4
20260508195016 21 113 9.7 12.9 0.03 0.03 0.03 79 1011.3
20260508194016 21 0.0 8.0 0.00 0.00 0.00 76 1011.5
20260508193016 22 0.0 4.8 0.00 0.00 0.00 75 1011.7
20260508192016 22 135 3.2 14.5 0.00 0.00 0.00 74 1011.6
20260508191016 22 113 6.4 16.1 0.00 0.00 0.00 76 1011.3
20260508190016 22 113 11.3 17.7 0.00 0.00 0.00 78 1011.3
20260508185016 21 135 12.9 19.3 0.00 0.00 0.00 76 1011.5
20260508184016 21 113 12.9 19.3 0.00 0.00 0.00 76 1011.6
20260508183016 21 113 14.5 19.3 0.00 0.00 0.00 75 1011.9
20260508182016 21 113 14.5 20.9 0.00 0.00 0.00 74 1012.1
20260508181016 21 135 11.3 19.3 0.00 0.00 0.00 74 1012.3
20260508180016 21 135 8.0 19.3 0.00 0.00 0.00 73 1012.4
20260508175016 21 113 9.7 17.7 0.00 0.00 0.00 73 1012.3
20260508174016 21 113 9.7 14.5 0.00 0.00 0.00 74 1012.4
20260508173016 21 113 9.7 14.5 0.00 0.00 0.00 75 1012.5
20260508172536 21 90 9.7 17.7 0.00 0.00 0.00 76 1012.5
20260508171516 21 113 9.7 17.7 0.00 0.00 0.00 76 1012.7
20260508170516 20 135 9.7 16.1 0.00 0.00 0.00 76 1013.0
20260508165516 20 113 8.0 12.9 0.00 0.00 0.00 76 1013.2
20260508164536 20 113 11.3 14.5 0.00 0.00 0.00 76 1013.1
20260508163516 20 90 8.0 12.9 0.00 0.00 0.00 77 1013.0
20260508162516 20 90 9.7 17.7 0.00 0.00 0.00 76 1013.2
20260508161536 20 90 8.0 16.1 0.00 0.00 0.00 79 1013.2
20260508160516 19 113 8.0 16.1 0.00 0.00 0.00 80 1013.4
20260508155536 18 113 11.3 16.1 0.00 0.00 0.00 80 1013.6
20260508154516 18 90 9.7 14.5 0.00 0.00 0.00 82 1013.8
20260508153516 18 90 9.7 16.1 0.00 0.00 0.00 82 1013.8
20260508152536 17 113 6.4 11.3 0.00 0.00 0.00 81 1014.1
20260508151516 17 113 8.0 12.9 0.00 0.00 0.00 81 1014.2
20260508150516 17 113 6.4 9.7 0.00 0.00 0.00 81 1014.4
20260508145516 17 135 6.4 9.7 0.00 0.00 0.00 81 1014.3
20260508144516 17 113 8.0 11.3 0.00 0.00 0.00 81 1014.4
20260508143516 17 113 4.8 11.3 0.00 0.00 0.00 81 1014.4
20260508142516 17 113 4.8 8.0 0.00 0.00 0.00 80 1014.1
20260508141536 17 135 3.2 6.4 0.00 0.00 0.00 81 1014.2
20260508140516 17 135 3.2 8.0 0.00 0.00 0.00 81 1014.3
20260508135516 17 135 3.2 6.4 0.00 0.00 0.00 81 1014.4
20260508134516 17 135 4.8 6.4 0.00 0.00 0.00 82 1014.4
20260508133516 17 113 6.4 12.9 0.00 0.00 0.00 84 1014.3
20260508132516 17 90 6.4 12.9 0.00 0.00 0.00 86 1014.4
20260508131536 16 135 3.2 6.4 0.00 0.00 0.00 88 1014.2
20260508130516 16 158 6.4 8.0 0.00 0.00 0.00 89 1014.4
20260508125536 16 203 1.6 4.8 0.00 0.00 0.00 90 1014.4
20260508124536 15 0.0 0.0 0.00 0.00 0.00 91 1014.6
20260508123516 15 0.0 0.0 0.00 0.00 0.00 91 1014.6
20260508122516 15 0.0 0.0 0.00 0.00 0.00 91 1014.6
20260508121536 14 0.0 0.0 0.00 0.00 0.00 91 1014.1
20260508120516 14 0.0 3.2 0.00 0.00 0.00 90 1014.2
20260508115516 14 0.0 3.2 0.00 0.00 0.00 90 1014.3
20260508114556 14 0.0 0.0 0.00 0.00 0.00 89 1014.2
20260508113516 14 0.0 0.0 0.00 0.00 0.00 89 1014.3
20260508112516 14 0.0 0.0 0.00 0.00 0.00 90 1014.5
20260508111516 14 0.0 1.6 0.00 0.00 0.00 90 1014.6
20260508110536 15 0.0 0.0 0.00 0.00 0.00 90 1014.8
20260508105516 14 0.0 3.2 0.00 0.00 0.00 91 1014.4
20260508104516 14 135 1.6 4.8 0.00 0.00 0.00 91 1014.1
20260508103516 14 0.0 3.2 0.00 0.00 0.00 91 1014.2
20260508102516 14 0.0 0.0 0.00 0.00 0.00 92 1014.3
20260508101516 14 0.0 4.8 0.00 0.00 0.00 92 1014.2
20260508100536 14 0.0 0.0 0.00 0.00 0.00 91 1014.2
20260508095516 14 0.0 0.0 0.00 0.00 0.00 91 1014.2
20260508094516 14 0.0 0.0 0.00 0.00 0.00 91 1014.1
20260508093536 14 0.0 0.0 0.00 0.00 0.00 91 1014.2
20260508092556 15 0.0 0.0 0.00 0.00 0.00 91 1014.1
20260508091515 15 0.0 0.0 0.00 0.00 0.00 91 1014.1
20260508090516 15 0.0 0.0 0.00 0.00 0.00 90 1014.2
20260508085537 15 0.0 0.0 0.00 0.00 0.00 90 1014.2
20260508084517 15 0.0 3.2 0.00 0.00 0.00 89 1014.1
20260508083517 15 0.0 0.0 0.00 0.00 0.00 89 1014.2
20260508082517 15 0.0 1.6 0.00 0.00 0.00 89 1014.2
20260508081537 15 0.0 1.6 0.00 0.00 0.00 88 1014.3
20260508080517 16 0.0 0.0 0.00 0.00 0.00 88 1014.6
20260508075537 16 0.0 0.0 0.00 0.00 0.00 88 1014.8
20260508074517 16 0.0 0.0 0.00 0.00 0.00 88 1015.2
20260508073537 16 0.0 0.0 0.00 0.00 0.00 88 1015.5
20260508072517 16 0.0 0.0 0.00 0.00 0.00 88 1015.6
20260508071517 16 0.0 0.0 0.00 0.00 0.00 87 1015.5
20260508070517 15 0.0 0.0 0.00 0.00 0.00 87 1015.4
20260508065516 15 0.0 0.0 0.00 0.00 0.00 87 1015.4
20260508064517 15 0.0 0.0 0.00 0.00 0.00 87 1015.1
20260508063517 16 0.0 0.0 0.00 0.00 0.00 87 1015.3
20260508062537 16 0.0 0.0 0.00 0.00 0.00 87 1015.4
20260508061517 16 0.0 0.0 0.00 0.00 0.00 87 1015.5
20260508060517 16 0.0 3.2 0.00 0.00 0.00 87 1015.4
20260508055517 15 0.0 0.0 0.00 0.00 0.00 86 1015.7
20260508054537 16 0.0 0.0 0.00 0.00 0.00 85 1015.6
20260508053516 16 0.0 0.0 0.00 0.00 0.00 85 1015.7
20260508052517 16 0.0 0.0 0.00 0.00 0.00 85 1015.9
20260508051517 16 0.0 0.0 0.00 0.00 0.00 85 1015.9
20260508050517 16 0.0 0.0 0.00 0.00 0.00 84 1015.9
20260508045516 16 0.0 0.0 0.00 0.00 0.00 84 1015.9
20260508044517 16 0.0 0.0 0.00 0.00 0.00 82 1015.8
20260508043516 16 0.0 0.0 0.00 0.00 0.00 82 1015.5
20260508042516 16 0.0 0.0 0.00 0.00 0.00 81 1015.7
20260508041517 16 0.0 0.0 0.00 0.00 0.00 81 1015.4
20260508040516 16 0.0 0.0 0.00 0.00 0.00 81 1015.7
20260508035516 16 0.0 0.0 0.00 0.00 0.00 82 1015.6
20260508034516 16 0.0 0.0 0.00 0.00 0.00 82 1015.4
20260508033536 16 0.0 0.0 0.00 0.00 0.00 82 1015.3
20260508032517 16 0.0 0.0 0.00 0.00 0.00 81 1015.0
20260508031536 16 0.0 0.0 0.00 0.00 0.00 80 1015.2
20260508030517 16 0.0 0.0 0.00 0.00 0.00 80 1014.6
20260508025537 16 0.0 0.0 0.00 0.00 0.00 80 1014.7